sat.trackr.live / text

‹ back to catalog

QIANFAN-124

NORAD 68651 · 2026-075R

PAYLOAD ACTIVE UNKNOWN

§ Identity

Operator
Country
PRC
Launch date
2026-04-07
Launch site
WSC
Launch vehicle
Mass (kg)
RCS (m²)

External: N2YO · Heavens-Above · Gunter

§ Orbital elements

Epoch: 2026-05-24T17:17:59.279136Z

Period
105.55 min
Inclination
88.9892°
Eccentricity
0.0009131
Mean motion
13.64256187 rev/d
Perigee alt
1,013.5 km
Apogee alt
1,027.0 km
Semi-major
7,398.4 km
B*
3.8746e-5
RAAN
323.4090°
Arg perigee
66.0874°
Mean anomaly
294.1240°
Rev number
663

§ Raw data

QIANFAN-1241 68651U 26075R   26144.72082499  .00000043  00000+0  38746-4 0  99922 68651  88.9892 323.4090 0009131  66.0874 294.1240 13.64256187  6638

JSON: /api/v1/satellites/68651 · /tle

For live sub-satellite position, see the globe view (requires WebGL).

§ Visibility from observer

Set your observer location to see the next 7 days of passes ≥ 10°. The values pass through the URL so the page stays shareable.

No JS? Fill the form by hand. The geolocation button needs JavaScript.